User: anonymous   Login
Location: Wien
(48.2082°N, 16.3738°E)
Time: 00:24:07
(UTC+02:00)
Language:

SR - Orbit

View from above orbital plane
View from above orbital plane
View from above satellite
View from above satellite

Ground track
Ground track

The orbit data is extracted from the following two-line orbital elements,

1    46U 60007B   24276.90235101  .00005788  00000-0  11158-2 0  9991
2    46  66.6887 122.5086 0195558  38.8203 322.6768 14.52691306366527
Epoch (UTC): 02 October 2024 21:39:23
Eccentricity: 0.0195558
inclination: 66.6887°
perigee height: 578 km
apogee height: 855 km
right ascension of ascending node: 122.5086°
argument of perigee: 38.8203°
revolutions per day: 14.52691306
mean anomaly at epoch: 322.6768°
orbit number at epoch: 36652

The dashed part of the orbit path shows where the satellite is in the earth's shadow,  

DLR